Overview Statistics Trail Chart Weather Telemetry Raw packets
 

This is the latest recevied weather packets stored in our database for station/object DL7KAW-10. If no packets are shown the sender has not sent any weather packets the latest 10 day(s).

<< 1 2 3 4 >>
Time Temp. Humidity Pressure Rain* Wind** Luminosity Snow
1788713563 19.44° C 75% 1026.3 hPa - - - -
1788712663 19.44° C 75% 1026.2 hPa - - - -
1788711763 19.44° C 73% 1026.1 hPa - - - -
1788710863 19.44° C 72% 1026 hPa - - - -
1788709963 19.44° C 71% 1026.1 hPa - - - -
1788709062 19.44° C 71% 1026 hPa - - - -
1788708194 19.44° C 71% 1026 hPa - - - -
1788707262 19.44° C 72% 1025.9 hPa - - - -
1788706362 19.44° C 74% 1025.9 hPa - - - -
1788705462 19.44° C 69% 1025.9 hPa - - - -
1788704593 18.89° C 72% 1026.1 hPa - - - -
1788703662 19.44° C 71% 1025.9 hPa - - - -
1788702761 18.89° C 72% 1025.8 hPa - - - -
1788701861 18.89° C 71% 1025.9 hPa - - - -
1788700961 18.89° C 71% 1025.9 hPa - - - -
1788700061 19.44° C 71% 1026 hPa - - - -
1788699161 19.44° C 70% 1025.8 hPa - - - -
1788698261 18.89° C 71% 1026 hPa - - - -
1788697361 18.89° C 71% 1025.9 hPa - - - -
1788696461 18.89° C 70% 1025.8 hPa - - - -
1788695561 18.89° C 70% 1025.7 hPa - - - -
1788694660 18.89° C 69% 1025.8 hPa - - - -
1788693760 18.89° C 69% 1025.6 hPa - - - -
1788692860 18.89° C 69% 1025.5 hPa - - - -
1788691960 18.89° C 69% 1025.5 hPa - - - -

* Rain since midnight (hover to see other rain measurements)
** Current wind speed in m/s (hover to see current wind gust speed)